FW0502 Weather Reports


time (UTC)temp
C
wind
direction
speed
KPH
gust
KPH
rain 1hr
cm
rain 24hr
cm
rain mn
cm
humidity
%
barometer
mb
20260504044529 11 12.9 19.3 0.00 0.00 0.00 41 1013.1
20260504043026 11 11.3 19.3 0.00 0.00 0.00 42 1012.7
20260504041523 10 1.6 6.4 0.00 0.00 0.00 46 1012.4
20260504040023 10 0.0 9.7 0.00 0.00 0.00 44 1011.9
20260504034523 11 8.0 17.7 0.00 0.00 0.00 43 1011.3
20260504033022 11 12.9 24.1 0.00 0.00 0.00 43 1010.8
20260504031521 11 16.1 25.7 0.00 0.00 0.00 41 1010.3
20260504030021 12 12.9 22.5 0.00 0.00 0.00 40 1010.0
20260504024520 12 9.7 24.1 0.00 0.00 0.00 39 1009.8
20260504023020 13 16.1 37.0 0.00 0.00 0.00 37 1009.2
20260504021518 15 24.1 33.8 0.00 0.00 0.00 33 1008.9
20260504020018 16 16.1 29.0 0.00 0.00 0.00 31 1008.4
20260504014535 16 20.9 35.4 0.00 0.00 0.00 30 1008.1
20260504013017 17 24.1 35.4 0.00 0.00 0.00 29 1007.9
20260504011516 17 24.1 37.0 0.00 0.00 0.00 28 1007.4
20260504010016 18 27.4 37.0 0.00 0.00 0.00 27 1007.5
20260504004517 19 20.9 30.6 0.00 0.00 0.00 26 1007.4
20260504003015 20 19.3 32.2 0.00 0.00 0.00 26 1007.3
20260504001513 20 24.1 33.8 0.00 0.00 0.00 27 1007.0
20260504000030 20 25.7 33.8 0.00 0.00 0.00 26 1006.9
20260503234511 21 24.1 35.4 0.00 0.00 0.00 25 1006.8
20260503233009 21 22.5 33.8 0.00 0.00 0.00 23 1006.7
20260503231507 22 16.1 29.0 0.00 0.00 0.00 22 1006.7
20260503230006 22 14.5 25.7 0.00 0.00 0.00 22 1006.9
20260503224504 22 19.3 29.0 0.00 0.00 0.00 21 1006.9
20260503223003 22 14.5 29.0 0.00 0.00 0.00 20 1007.0
20260503221501 22 3.2 24.1 0.00 0.00 0.00 23 1007.3
20260503220106 22 14.5 27.4 0.00 0.00 0.00 19 1007.4
20260503214559 22 6.4 16.1 0.00 0.00 0.00 20 1007.5
20260503213057 22 3.2 19.3 0.00 0.00 0.00 21 1007.6
20260503211555 22 6.4 16.1 0.00 0.00 0.00 21 1007.9
20260503210058 22 14.5 24.1 0.00 0.00 0.00 20 1008.2
20260503204607 22 12.9 20.9 0.00 0.00 0.00 20 1008.2
20260503203059 21 14.5 24.1 0.00 0.00 0.00 22 1008.4
20260503201549 21 12.9 20.9 0.00 0.00 0.00 21 1008.4
20260503200047 21 17.7 27.4 0.00 0.00 0.00 21 1008.7
20260503194556 21 9.7 24.1 0.00 0.00 0.00 23 1009.0
20260503193043 21 6.4 29.0 0.00 0.00 0.00 23 1009.3
20260503191543 21 11.3 20.9 0.00 0.00 0.00 23 1009.5
20260503190045 21 16.1 25.7 0.00 0.00 0.00 22 1009.8
20260503184537 21 9.7 30.6 0.00 0.00 0.00 23 1009.9
20260503183033 20 11.3 27.4 0.00 0.00 0.00 24 1010.3
20260503181533 20 12.9 27.4 0.00 0.00 0.00 23 1010.6
20260503180029 20 9.7 22.5 0.00 0.00 0.00 24 1010.8
20260503174526 20 12.9 27.4 0.00 0.00 0.00 24 1010.9
20260503173027 19 3.2 16.1 0.00 0.00 0.00 26 1011.0
20260503171522 18 9.7 17.7 0.00 0.00 0.00 26 1011.2
20260503081505 5 8.0 12.9 0.00 0.00 0.00 71 1012.3
20260503071558 5 1.6 4.8 0.00 0.00 0.00 80 1012.1